Location: Campillo
(40.8621°N, 4.2488°W)
Time: 12:58:20
(UTC+00:00)

Cosmos 44 - Pass Details

Date: 11 May 2021
Orbit: 571 x 791 km, 65.1° (Epoch: 14 June)

Event Time Altitude Azimuth Distance (km) Brightness Sun altitude
Rises 23:23:51 0° 325° (NW) 3,287 7.8 -29.9°
Reaches altitude 10° 23:26:20 10° 323° (NW) 2,343 6.8 -30.0°
Enters shadow 23:30:24 49° 301° (WNW) 986 4.2 -30.2°
